Regional Weather Roundup
Issued by NWS

Home | Current Version | Previous Version | Graphics & Text | Print | Product List | Glossary On
Versions: 1 2 3 4 5 6 7 8 9 10 11 12 13 14 15 16 17 18 19 20 21 22 23 24 25 26 27 28 29 30 31 32 33 34 35 36 37 38 39 40 41 42 43 44 45 46 47 48 49 50
000
ASUS44 KMEG 230600
RWRTN
TENNESSEE HOURLY STATE WEATHER ROUNDUP
NATIONAL WEATHER SERVICE MEMPHIS TN
1200 AM CST SUN NOV 23 2014

TNZ002-004-019-021-049-052-054-088>092-230700-
WEST TENNESSEE

CITY           SKY/WX    TMP DP  RH WIND       PRES   REMARKS
MEMPHIS INTL   PTCLDY    59  49  69 SE9       29.92F
NWS MEMPHIS      N/A     58 N/A N/A MISG        N/A
JACKSON        MOCLDY    59  48  67 S8G16     29.96F
DYERSBURG      PTCLDY    55  37  50 SE9       29.96F
UNION CITY     CLOUDY    55  46  71 S12       29.95F
PARIS            N/A     52  41  66 SE9       29.98F
LEXINGTON      CLEAR     57  45  62 SE7       29.97F
SAVANNAH       PTCLDY    57  46  67 SE8       30.00F
$$

TNZ008-025-027-028-033-062-065-066-230700-
NORTH MIDDLE TENNESSEE

CITY           SKY/WX    TMP DP  RH WIND       PRES   REMARKS
NASHVILLE      CLOUDY    55  37  50 SE8       30.06F
CLARKSVILLE    PTCLDY    54  40  59 S9        30.01F
COOKEVILLE     MOCLDY    54  36  50 S12       30.08F
CROSSVILLE     CLOUDY    53  36  52 S6        30.12F
$$

TNZ061-075-076-078-094-096-097-230700-
SOUTH MIDDLE TENNESSEE

CITY           SKY/WX    TMP DP  RH WIND       PRES   REMARKS
FAYETTEVILLE   MOCLDY    54  36  50 N20G36    30.08F
TULLAHOMA      MOCLDY    54  34  47 S10       30.09F
WINCHESTER     PTCLDY    54  36  50 S15       30.09F
SHELBYVILLE    PTCLDY    55  39  54 S10       30.09S
$$

TNZ017-018-042-046-047-230700-
NORTHEAST TENNESSEE

CITY           SKY/WX    TMP DP  RH WIND       PRES   REMARKS
TRI CITIES     MOCLDY    35  27  72 CALM      30.19F
ELIZABETHTON   CLEAR     37  25  60 E7        30.21F WCI  32
$$

TNZ012-013-036-069-073-074-230700-
CENTRAL EAST TENNESSEE

CITY           SKY/WX    TMP DP  RH WIND       PRES   REMARKS
KNOXVILLE      MOCLDY    39  32  76 NE3       30.16F
OAK RIDGE      MOCLDY    46  35  65 W3        30.16F
GATLINBURG     CLEAR     34  28  80 CALM      30.15F
$$

TNZ083-085-099-230700-
SOUTHEAST TENNESSEE

CITY           SKY/WX    TMP DP  RH WIND       PRES   REMARKS
CHATTANOOGA    CLOUDY    56  27  32 S8        30.15F
$$

SKY/WX REPORTED AS FAIR MEANS FEW OR NO CLOUDS BELOW
12 THOUSAND FEET.



USA.gov is the U.S. government's official web portal to all federal, state and local government web resources and services.